| time (UTC) | temp F | wind direction | speed MPH | gust MPH | rain 1hr in | rain 24hr in | rain mn in | humidity % | barometer mb |
| 20260906025040 | 67 | 0 | 0.0 | 1.0 | 0.00 | 0.08 | 0.08 | 79 | 1021.2 |
| 20260906024600 | 67 | 0 | 0.0 | 1.0 | 0.00 | 0.08 | 0.08 | 79 | 1021.2 |
| 20260906024039 | 67 | 0 | 0.0 | 1.0 | 0.00 | 0.08 | 0.08 | 80 | 1021.2 |
| 20260906023538 | 67 | 0 | 0.0 | 2.0 | 0.00 | 0.08 | 0.08 | 79 | 1021.2 |
| 20260906023052 | 67 | 0 | 0.0 | 4.0 | 0.00 | 0.08 | 0.08 | 79 | 1021.2 |
| 20260906022539 | 68 | 0 | 0.0 | 4.0 | 0.00 | 0.08 | 0.08 | 78 | 1021.2 |
| 20260906022039 | 68 | 271 | 0.0 | 4.0 | 0.00 | 0.08 | 0.08 | 78 | 1021.2 |
| 20260906021551 | 68 | 0 | 0.0 | 0.0 | 0.00 | 0.08 | 0.08 | 79 | 1021.2 |
| 20260906021038 | 69 | 0 | 0.0 | 0.0 | 0.00 | 0.08 | 0.08 | 77 | 1021.2 |
| 20260906020539 | 70 | 0 | 0.0 | 6.0 | 0.00 | 0.08 | 0.08 | 73 | 1021.2 |
| 20260906020055 | 70 | 0 | 0.0 | 6.0 | 0.00 | 0.08 | 0.08 | 72 | 1021.2 |
| 20260906015538 | 70 | 0 | 0.0 | 8.0 | 0.00 | 0.08 | 0.08 | 71 | 1021.2 |
| 20260906015039 | 71 | 0 | 0.0 | 11.0 | 0.00 | 0.08 | 0.08 | 70 | 1021.2 |
| 20260906014633 | 71 | 309 | 3.0 | 11.0 | 0.00 | 0.08 | 0.08 | 69 | 1021.2 |
| 20260906014039 | 71 | 0 | 0.0 | 0.0 | 0.00 | 0.08 | 0.08 | 68 | 1021.2 |
| 20260906013539 | 71 | 0 | 0.0 | 0.0 | 0.00 | 0.08 | 0.08 | 67 | 1021.2 |
| 20260906013058 | 72 | 0 | 0.0 | 2.0 | 0.00 | 0.08 | 0.08 | 67 | 1021.2 |
| 20260906012539 | 72 | 0 | 0.0 | 2.0 | 0.00 | 0.08 | 0.08 | 66 | 1021.2 |
| 20260906012038 | 72 | 0 | 0.0 | 2.0 | 0.00 | 0.08 | 0.08 | 64 | 1021.2 |
| 20260906011603 | 73 | 0 | 0.0 | 0.0 | 0.00 | 0.08 | 0.08 | 64 | 1021.2 |
| 20260906011038 | 73 | 0 | 0.0 | 0.0 | 0.00 | 0.08 | 0.08 | 63 | 1021.2 |
| 20260906010538 | 74 | 0 | 0.0 | 0.0 | 0.00 | 0.08 | 0.08 | 61 | 1021.2 |
| 20260906010058 | 74 | 0 | 0.0 | 0.0 | 0.00 | 0.08 | 0.08 | 60 | 1021.2 |
| 20260906005538 | 74 | 0 | 0.0 | 3.0 | 0.00 | 0.08 | 0.08 | 62 | 1021.2 |
| 20260906005038 | 74 | 0 | 0.0 | 3.0 | 0.00 | 0.08 | 0.08 | 61 | 1021.2 |
| 20260906004606 | 75 | 0 | 0.0 | 3.0 | 0.00 | 0.08 | 0.08 | 59 | 1021.2 |
| 20260906004041 | 75 | 0 | 0.0 | 8.0 | 0.00 | 0.08 | 0.08 | 58 | 1021.2 |
| 20260906003539 | 75 | 0 | 1.0 | 10.0 | 0.00 | 0.08 | 0.08 | 58 | 1021.2 |
| 20260906003114 | 77 | 0 | 1.0 | 10.0 | 0.00 | 0.08 | 0.08 | 55 | 1021.2 |
| 20260906002540 | 79 | 33 | 5.0 | 14.0 | 0.00 | 0.08 | 0.08 | 52 | 1021.2 |
| 20260906002039 | 81 | 0 | 5.0 | 14.0 | 0.00 | 0.08 | 0.08 | 51 | 1021.2 |
| 20260906001557 | 82 | 68 | 0.0 | 7.0 | 0.00 | 0.08 | 0.08 | 48 | 1021.2 |
| 20260906001038 | 82 | 0 | 3.0 | 7.0 | 0.00 | 0.08 | 0.08 | 48 | 1021.2 |
| 20260906000541 | 82 | 0 | 0.0 | 5.0 | 0.00 | 0.08 | 0.08 | 47 | 1021.2 |
| 20260906000100 | 82 | 115 | 1.0 | 5.0 | 0.00 | 0.08 | 0.08 | 47 | 1021.2 |
| 20260905235542 | 83 | 0 | 0.0 | 0.0 | 0.00 | 0.08 | 0.08 | 46 | 1021.2 |
| 20260905235038 | 83 | 0 | 0.0 | 0.0 | 0.00 | 0.08 | 0.08 | 45 | 1021.2 |
| 20260905234603 | 83 | 0 | 0.0 | 0.0 | 0.00 | 0.08 | 0.08 | 47 | 1021.2 |
| 20260905234039 | 83 | 0 | 0.0 | 0.0 | 0.00 | 0.08 | 0.08 | 46 | 1021.2 |
| 20260905233539 | 83 | 0 | 0.0 | 0.0 | 0.00 | 0.08 | 0.08 | 46 | 1021.2 |
| 20260905233059 | 83 | 0 | 0.0 | 0.0 | 0.00 | 0.08 | 0.08 | 46 | 1021.2 |
| 20260905232539 | 82 | 0 | 0.0 | 0.0 | 0.00 | 0.08 | 0.08 | 49 | 1021.2 |
| 20260905232038 | 82 | 0 | 0.0 | 0.0 | 0.00 | 0.08 | 0.08 | 47 | 1021.2 |
| 20260905231557 | 82 | 0 | 0.0 | 1.0 | 0.00 | 0.08 | 0.08 | 48 | 1021.2 |
| 20260905231039 | 81 | 0 | 0.0 | 1.0 | 0.00 | 0.08 | 0.08 | 50 | 1021.2 |
| 20260905230538 | 81 | 0 | 0.0 | 1.0 | 0.00 | 0.08 | 0.08 | 49 | 1021.2 |
| 20260905230053 | 81 | 0 | 0.0 | 0.0 | 0.00 | 0.08 | 0.08 | 51 | 1021.2 |
| 20260905225538 | 80 | 0 | 0.0 | 2.0 | 0.00 | 0.09 | 0.08 | 55 | 1021.2 |
| 20260905225038 | 80 | 0 | 0.0 | 5.0 | 0.00 | 0.09 | 0.08 | 54 | 1021.2 |
| 20260905224607 | 80 | 0 | 0.0 | 5.0 | 0.00 | 0.09 | 0.08 | 53 | 1021.2 |
| 20260905224040 | 80 | 212 | 2.0 | 6.0 | 0.00 | 0.09 | 0.08 | 53 | 1021.2 |
| 20260905223539 | 80 | 266 | 1.0 | 6.0 | 0.00 | 0.09 | 0.08 | 54 | 1021.2 |
| 20260905223058 | 80 | 229 | 0.0 | 5.0 | 0.00 | 0.09 | 0.08 | 55 | 1021.2 |
| 20260905222539 | 80 | 221 | 1.0 | 7.0 | 0.00 | 0.09 | 0.08 | 54 | 1021.2 |
| 20260905222038 | 79 | 173 | 1.0 | 7.0 | 0.00 | 0.09 | 0.08 | 57 | 1021.2 |
| 20260905221609 | 78 | 236 | 1.0 | 7.0 | 0.00 | 0.09 | 0.08 | 58 | 1021.2 |
| 20260905221040 | 77 | 0 | 0.0 | 7.0 | 0.00 | 0.09 | 0.08 | 61 | 1021.2 |
| 20260905220538 | 75 | 0 | 0.0 | 3.0 | 0.00 | 0.09 | 0.08 | 67 | 1021.2 |
| 20260905220100 | 74 | 0 | 0.0 | 3.0 | 0.00 | 0.09 | 0.08 | 68 | 1021.2 |
| 20260905215539 | 73 | 281 | 0.0 | 2.0 | 0.00 | 0.10 | 0.08 | 71 | 1021.2 |
| 20260905215038 | 73 | 0 | 0.0 | 2.0 | 0.00 | 0.10 | 0.08 | 72 | 1021.2 |
| 20260905214557 | 73 | 0 | 0.0 | 1.0 | 0.02 | 0.10 | 0.08 | 73 | 1021.2 |
| 20260905214038 | 73 | 0 | 0.0 | 6.0 | 0.05 | 0.10 | 0.08 | 74 | 1021.2 |
| 20260905213538 | 73 | 0 | 0.0 | 6.0 | 0.05 | 0.10 | 0.08 | 72 | 1021.2 |
| 20260905213103 | 73 | 0 | 0.0 | 2.0 | 0.05 | 0.10 | 0.08 | 74 | 1021.2 |
| 20260905212538 | 72 | 0 | 0.0 | 6.0 | 0.05 | 0.10 | 0.08 | 74 | 1021.2 |
| 20260905212038 | 72 | 0 | 0.0 | 6.0 | 0.05 | 0.10 | 0.08 | 74 | 1021.2 |
| 20260905211600 | 71 | 240 | 1.0 | 4.0 | 0.05 | 0.10 | 0.08 | 79 | 1021.2 |
| 20260905211039 | 70 | 296 | 1.0 | 3.0 | 0.05 | 0.10 | 0.08 | 80 | 1021.2 |
| 20260905210538 | 71 | 283 | 0.0 | 3.0 | 0.05 | 0.10 | 0.08 | 80 | 1021.2 |
| 20260905210059 | 71 | 214 | 0.0 | 3.0 | 0.06 | 0.10 | 0.08 | 81 | 1021.2 |
| 20260905205539 | 72 | 221 | 0.0 | 3.0 | 0.07 | 0.22 | 0.08 | 78 | 1021.2 |
| 20260905205039 | 74 | 0 | 0.0 | 3.0 | 0.07 | 0.22 | 0.08 | 70 | 1021.2 |
| 20260905204555 | 75 | 0 | 0.0 | 8.0 | 0.05 | 0.20 | 0.06 | 62 | 1021.2 |
| 20260905204040 | 75 | 0 | 0.0 | 8.0 | 0.02 | 0.17 | 0.03 | 61 | 1021.2 |
| 20260905203540 | 75 | 249 | 1.0 | 11.0 | 0.02 | 0.17 | 0.03 | 62 | 1021.2 |
| 20260905203053 | 76 | 243 | 1.0 | 11.0 | 0.02 | 0.17 | 0.03 | 64 | 1021.2 |
| 20260905202538 | 76 | 0 | 2.0 | 10.0 | 0.02 | 0.17 | 0.03 | 68 | 1021.2 |
| 20260905202039 | 74 | 243 | 4.0 | 10.0 | 0.02 | 0.17 | 0.03 | 69 | 1021.2 |
| 20260905201615 | 73 | 295 | 2.0 | 8.0 | 0.02 | 0.17 | 0.03 | 71 | 1021.2 |
| 20260905201039 | 72 | 276 | 3.0 | 8.0 | 0.03 | 0.17 | 0.03 | 71 | 1021.2 |
| 20260905200540 | 73 | 221 | 2.0 | 8.0 | 0.03 | 0.17 | 0.03 | 69 | 1021.2 |
| 20260905195539 | 75 | 238 | 4.0 | 13.0 | 0.01 | 0.46 | 0.01 | 60 | 1021.2 |
| 20260905195040 | 73 | 219 | 6.0 | 13.0 | 0.01 | 0.46 | 0.01 | 68 | 1021.2 |
| 20260905194554 | 71 | 233 | 4.0 | 13.0 | 0.01 | 0.46 | 0.01 | 89 | 1021.2 |
| 20260905194042 | 70 | 174 | 7.0 | 13.0 | 0.01 | 0.46 | 0.01 | 93 | 1021.2 |
| 20260905193540 | 68 | 231 | 5.0 | 11.0 | 0.01 | 0.46 | 0.01 | 92 | 1021.2 |
| 20260905193112 | 68 | 200 | 3.0 | 10.0 | 0.01 | 0.46 | 0.01 | 90 | 1021.2 |
| 20260905192539 | 69 | 227 | 5.0 | 10.0 | 0.01 | 0.46 | 0.01 | 87 | 1021.2 |
| 20260905192042 | 72 | 231 | 1.0 | 6.0 | 0.01 | 0.46 | 0.01 | 83 | 1021.2 |
| 20260905191556 | 79 | 0 | 3.0 | 6.0 | 0.01 | 0.46 | 0.01 | 60 | 1021.2 |
| 20260905191039 | 80 | 212 | 2.0 | 6.0 | 0.00 | 0.45 | 0.00 | 56 | 1021.2 |
| 20260905190541 | 81 | 210 | 1.0 | 5.0 | 0.00 | 0.45 | 0.00 | 54 | 1021.2 |
| 20260905190055 | 81 | 196 | 1.0 | 8.0 | 0.00 | 0.45 | 0.00 | 53 | 1021.2 |
| 20260905185539 | 81 | 0 | 4.0 | 10.0 | 0.00 | 0.45 | 0.00 | 53 | 1021.2 |
| 20260905185040 | 82 | 283 | 4.0 | 10.0 | 0.00 | 0.45 | 0.00 | 51 | 1021.2 |
| 20260905184557 | 81 | 229 | 2.0 | 8.0 | 0.00 | 0.45 | 0.00 | 53 | 1021.2 |
| 20260905184039 | 80 | 201 | 3.0 | 8.0 | 0.00 | 0.45 | 0.00 | 55 | 1021.2 |
| 20260905183539 | 80 | 219 | 2.0 | 8.0 | 0.00 | 0.45 | 0.00 | 55 | 1021.2 |
| 20260905183100 | 81 | 0 | 0.0 | 4.0 | 0.00 | 0.45 | 0.00 | 54 | 1021.2 |
| 20260905182539 | 81 | 259 | 1.0 | 4.0 | 0.00 | 0.45 | 0.00 | 52 | 1021.2 |
| 20260905182040 | 82 | 0 | 0.0 | 2.0 | 0.00 | 0.45 | 0.00 | 48 | 1021.2 |
| 20260905181608 | 83 | 0 | 0.0 | 7.0 | 0.00 | 0.45 | 0.00 | 46 | 1021.2 |
| 20260905181039 | 84 | 0 | 0.0 | 7.0 | 0.00 | 0.45 | 0.00 | 46 | 1021.2 |
| 20260905180539 | 85 | 290 | 2.0 | 7.0 | 0.00 | 0.45 | 0.00 | 46 | 1021.2 |
| 20260905180052 | 85 | 0 | 0.0 | 6.0 | 0.00 | 0.45 | 0.00 | 47 | 1021.2 |
| 20260905175539 | 83 | 221 | 1.0 | 8.0 | 0.00 | 0.45 | 0.00 | 45 | 1021.2 |
| 20260905175040 | 83 | 72 | 2.0 | 8.0 | 0.00 | 0.45 | 0.00 | 47 | 1021.2 |
| 20260905174603 | 83 | 67 | 5.0 | 8.0 | 0.00 | 0.45 | 0.00 | 44 | 1021.2 |
| 20260905174039 | 82 | 0 | 1.0 | 7.0 | 0.00 | 0.45 | 0.00 | 49 | 1021.2 |
| 20260905173539 | 82 | 103 | 2.0 | 7.0 | 0.00 | 0.45 | 0.00 | 48 | 1021.2 |
| 20260905173055 | 82 | 235 | 0.0 | 6.0 | 0.00 | 0.45 | 0.00 | 48 | 1021.2 |
| 20260905172539 | 82 | 285 | 0.0 | 6.0 | 0.00 | 0.45 | 0.00 | 50 | 1021.2 |
| 20260905172039 | 82 | 0 | 2.0 | 6.0 | 0.00 | 0.45 | 0.00 | 50 | 1021.2 |
| 20260905171553 | 81 | 0 | 0.0 | 5.0 | 0.00 | 0.45 | 0.00 | 50 | 1021.2 |
| 20260905171042 | 81 | 0 | 0.0 | 5.0 | 0.00 | 0.45 | 0.00 | 49 | 1021.2 |
| 20260905170539 | 81 | 329 | 0.0 | 5.0 | 0.00 | 0.45 | 0.00 | 49 | 1021.2 |
| 20260905170100 | 81 | 58 | 1.0 | 6.0 | 0.00 | 0.45 | 0.00 | 50 | 1021.2 |
| 20260905165538 | 81 | 0 | 2.0 | 6.0 | 0.00 | 0.45 | 0.00 | 51 | 1021.2 |
| 20260905165039 | 81 | 0 | 1.0 | 6.0 | 0.00 | 0.45 | 0.00 | 49 | 1021.2 |
| 20260905164558 | 81 | 0 | 0.0 | 7.0 | 0.00 | 0.45 | 0.00 | 51 | 1021.2 |
| 20260905164039 | 81 | 65 | 1.0 | 7.0 | 0.00 | 0.45 | 0.00 | 52 | 1021.2 |
| 20260905163539 | 80 | 0 | 1.0 | 7.0 | 0.00 | 0.45 | 0.00 | 52 | 1021.2 |
| 20260905163055 | 80 | 0 | 2.0 | 7.0 | 0.00 | 0.45 | 0.00 | 51 | 1021.2 |
| 20260905162539 | 80 | 0 | 2.0 | 7.0 | 0.00 | 0.45 | 0.00 | 51 | 1021.2 |
| 20260905162040 | 80 | 0 | 1.0 | 4.0 | 0.00 | 0.45 | 0.00 | 52 | 1021.2 |
| 20260905161600 | 80 | 0 | 0.0 | 5.0 | 0.00 | 0.45 | 0.00 | 52 | 1021.2 |
| 20260905161040 | 80 | 0 | 1.0 | 5.0 | 0.00 | 0.45 | 0.00 | 54 | 1021.2 |
| 20260905160538 | 80 | 358 | 0.0 | 3.0 | 0.00 | 0.45 | 0.00 | 53 | 1021.2 |
| 20260905160100 | 80 | 263 | 0.0 | 3.0 | 0.00 | 0.45 | 0.00 | 54 | 1021.2 |
| 20260905155540 | 79 | 0 | 0.0 | 3.0 | 0.00 | 0.45 | 0.00 | 55 | 1021.2 |
| 20260905155039 | 79 | 0 | 0.0 | 5.0 | 0.00 | 0.45 | 0.00 | 56 | 1021.2 |
| 20260905154609 | 79 | 0 | 0.0 | 5.0 | 0.00 | 0.45 | 0.00 | 56 | 1021.2 |
| 20260905154041 | 78 | 0 | 0.0 | 5.0 | 0.00 | 0.45 | 0.00 | 57 | 1021.2 |
| 20260905153539 | 78 | 0 | 0.0 | 5.0 | 0.00 | 0.45 | 0.00 | 58 | 1021.2 |
| 20260905153057 | 78 | 0 | 1.0 | 6.0 | 0.00 | 0.45 | 0.00 | 59 | 1021.2 |
| 20260905152539 | 77 | 255 | 1.0 | 6.0 | 0.00 | 0.45 | 0.00 | 59 | 1021.2 |
| 20260905152039 | 77 | 0 | 1.0 | 6.0 | 0.00 | 0.45 | 0.00 | 61 | 1021.2 |
| 20260905151601 | 76 | 221 | 1.0 | 6.0 | 0.00 | 0.45 | 0.00 | 60 | 1021.2 |
| 20260905151040 | 76 | 207 | 1.0 | 8.0 | 0.00 | 0.45 | 0.00 | 61 | 1021.2 |
| 20260905150539 | 76 | 244 | 2.0 | 8.0 | 0.00 | 0.45 | 0.00 | 63 | 1021.2 |
| 20260905150059 | 75 | 0 | 0.0 | 5.0 | 0.00 | 0.45 | 0.00 | 66 | 1021.2 |
| 20260905145539 | 75 | 0 | 0.0 | 3.0 | 0.00 | 0.45 | 0.00 | 66 | 1021.2 |
| 20260905145039 | 74 | 0 | 0.0 | 5.0 | 0.00 | 0.45 | 0.00 | 68 | 1021.2 |
| 20260905144555 | 73 | 0 | 1.0 | 5.0 | 0.00 | 0.45 | 0.00 | 69 | 1021.2 |
| 20260905144039 | 73 | 0 | 0.0 | 4.0 | 0.00 | 0.45 | 0.00 | 70 | 1021.2 |
| 20260905143539 | 72 | 226 | 0.0 | 3.0 | 0.00 | 0.45 | 0.00 | 71 | 1021.2 |
| 20260905143056 | 72 | 0 | 0.0 | 3.0 | 0.00 | 0.45 | 0.00 | 73 | 1021.2 |
| 20260905142540 | 71 | 0 | 0.0 | 3.0 | 0.00 | 0.45 | 0.00 | 76 | 1021.2 |
| 20260905142043 | 70 | 265 | 0.0 | 3.0 | 0.00 | 0.45 | 0.00 | 76 | 1021.2 |
| 20260905141559 | 69 | 293 | 0.0 | 3.0 | 0.00 | 0.45 | 0.00 | 78 | 1021.2 |
| 20260905141038 | 68 | 0 | 0.0 | 4.0 | 0.00 | 0.45 | 0.00 | 81 | 1021.2 |
| 20260905140539 | 67 | 0 | 0.0 | 4.0 | 0.00 | 0.45 | 0.00 | 84 | 1021.2 |
| 20260905135539 | 66 | 0 | 0.0 | 4.0 | 0.00 | 0.45 | 0.00 | 87 | 1021.2 |
| 20260905135040 | 65 | 0 | 0.0 | 4.0 | 0.00 | 0.45 | 0.00 | 89 | 1021.2 |
| 20260905134556 | 63 | 0 | 1.0 | 4.0 | 0.00 | 0.45 | 0.00 | 91 | 1021.2 |
| 20260905134040 | 62 | 0 | 0.0 | 0.0 | 0.00 | 0.45 | 0.00 | 94 | 1021.2 |
| 20260905133540 | 61 | 0 | 0.0 | 0.0 | 0.00 | 0.45 | 0.00 | 95 | 1021.2 |
| 20260905133056 | 60 | 0 | 0.0 | 0.0 | 0.00 | 0.45 | 0.00 | 95 | 1021.2 |
| 20260905132539 | 60 | 0 | 0.0 | 0.0 | 0.00 | 0.45 | 0.00 | 96 | 1021.2 |
| 20260905132040 | 59 | 0 | 0.0 | 0.0 | 0.00 | 0.45 | 0.00 | 95 | 1021.2 |
| 20260905131603 | 58 | 0 | 0.0 | 0.0 | 0.00 | 0.45 | 0.00 | 95 | 1021.2 |
| 20260905131039 | 58 | 0 | 0.0 | 0.0 | 0.00 | 0.45 | 0.00 | 95 | 1021.2 |
| 20260905130540 | 57 | 0 | 0.0 | 0.0 | 0.00 | 0.45 | 0.00 | 95 | 1021.2 |
| 20260905130054 | 57 | 0 | 0.0 | 0.0 | 0.00 | 0.45 | 0.00 | 95 | 1021.2 |
| 20260905125539 | 57 | 0 | 0.0 | 0.0 | 0.00 | 0.45 | 0.00 | 95 | 1021.2 |
| 20260905125039 | 57 | 0 | 0.0 | 0.0 | 0.00 | 0.45 | 0.00 | 95 | 1021.2 |
| 20260905124549 | 57 | 0 | 0.0 | 0.0 | 0.00 | 0.45 | 0.00 | 96 | 1021.2 |
| 20260905124040 | 56 | 0 | 0.0 | 0.0 | 0.00 | 0.45 | 0.00 | 95 | 1021.2 |
| 20260905123540 | 56 | 0 | 0.0 | 0.0 | 0.00 | 0.45 | 0.00 | 94 | 1021.2 |
| 20260905123058 | 56 | 0 | 0.0 | 0.0 | 0.00 | 0.45 | 0.00 | 95 | 1021.2 |
| 20260905122539 | 56 | 0 | 0.0 | 0.0 | 0.00 | 0.45 | 0.00 | 95 | 1021.2 |
| 20260905122042 | 57 | 0 | 0.0 | 0.0 | 0.00 | 0.45 | 0.00 | 95 | 1021.2 |
| 20260905121553 | 56 | 0 | 0.0 | 0.0 | 0.00 | 0.45 | 0.00 | 94 | 1021.2 |
| 20260905121039 | 56 | 0 | 0.0 | 0.0 | 0.00 | 0.45 | 0.00 | 94 | 1021.2 |
| 20260905120540 | 57 | 0 | 0.0 | 0.0 | 0.00 | 0.45 | 0.00 | 94 | 1021.2 |
| 20260905120058 | 57 | 0 | 0.0 | 0.0 | 0.00 | 0.45 | 0.00 | 94 | 1021.2 |
| 20260905115540 | 57 | 0 | 0.0 | 0.0 | 0.00 | 0.45 | 0.00 | 94 | 1021.2 |
| 20260905115040 | 57 | 0 | 0.0 | 0.0 | 0.00 | 0.45 | 0.00 | 94 | 1021.2 |
| 20260905114556 | 57 | 0 | 0.0 | 0.0 | 0.00 | 0.45 | 0.00 | 94 | 1021.2 |
| 20260905114040 | 58 | 0 | 0.0 | 0.0 | 0.00 | 0.45 | 0.00 | 94 | 1021.2 |
| 20260905113540 | 58 | 0 | 0.0 | 0.0 | 0.00 | 0.45 | 0.00 | 94 | 1021.2 |
| 20260905113058 | 58 | 0 | 0.0 | 0.0 | 0.00 | 0.45 | 0.00 | 94 | 1021.2 |
| 20260905112540 | 58 | 0 | 0.0 | 0.0 | 0.00 | 0.45 | 0.00 | 94 | 1021.2 |
| 20260905112039 | 58 | 0 | 0.0 | 0.0 | 0.00 | 0.45 | 0.00 | 94 | 1021.2 |
| 20260905111609 | 58 | 0 | 0.0 | 0.0 | 0.00 | 0.45 | 0.00 | 94 | 1021.2 |
| 20260905111039 | 58 | 0 | 0.0 | 0.0 | 0.00 | 0.45 | 0.00 | 94 | 1021.2 |
| 20260905110539 | 58 | 0 | 0.0 | 0.0 | 0.00 | 0.45 | 0.00 | 93 | 1021.2 |
| 20260905110100 | 58 | 0 | 0.0 | 0.0 | 0.00 | 0.45 | 0.00 | 94 | 1021.2 |
| 20260905105540 | 58 | 0 | 0.0 | 0.0 | 0.00 | 0.45 | 0.00 | 93 | 1021.2 |
| 20260905105040 | 58 | 0 | 0.0 | 0.0 | 0.00 | 0.45 | 0.00 | 93 | 1021.2 |
| 20260905104612 | 59 | 0 | 0.0 | 0.0 | 0.00 | 0.45 | 0.00 | 94 | 1021.2 |
| 20260905104042 | 59 | 0 | 0.0 | 0.0 | 0.00 | 0.45 | 0.00 | 93 | 1021.2 |
| 20260905103539 | 58 | 0 | 0.0 | 0.0 | 0.00 | 0.45 | 0.00 | 93 | 1021.2 |
| 20260905103056 | 59 | 0 | 0.0 | 0.0 | 0.00 | 0.45 | 0.00 | 93 | 1021.2 |
| 20260905102540 | 59 | 0 | 0.0 | 0.0 | 0.00 | 0.45 | 0.00 | 93 | 1021.2 |
| 20260905102039 | 59 | 0 | 0.0 | 0.0 | 0.00 | 0.45 | 0.00 | 93 | 1021.2 |
| 20260905101600 | 59 | 0 | 0.0 | 0.0 | 0.00 | 0.45 | 0.00 | 93 | 1021.2 |
| 20260905101040 | 59 | 0 | 0.0 | 0.0 | 0.00 | 0.45 | 0.00 | 93 | 1021.2 |
| 20260905100540 | 59 | 0 | 0.0 | 0.0 | 0.00 | 0.45 | 0.00 | 93 | 1021.2 |
| 20260905100100 | 60 | 0 | 0.0 | 0.0 | 0.00 | 0.45 | 0.00 | 93 | 1021.2 |
| 20260905095540 | 60 | 0 | 0.0 | 0.0 | 0.00 | 0.45 | 0.00 | 93 | 1021.2 |
| 20260905095039 | 60 | 0 | 0.0 | 0.0 | 0.00 | 0.45 | 0.00 | 92 | 1021.2 |
| 20260905094556 | 60 | 0 | 0.0 | 0.0 | 0.00 | 0.45 | 0.00 | 92 | 1021.2 |
| 20260905094039 | 60 | 0 | 0.0 | 0.0 | 0.00 | 0.45 | 0.00 | 92 | 1021.2 |
| 20260905093540 | 60 | 0 | 0.0 | 0.0 | 0.00 | 0.45 | 0.00 | 91 | 1021.2 |
| 20260905093051 | 61 | 0 | 0.0 | 0.0 | 0.00 | 0.45 | 0.00 | 92 | 1021.2 |
| 20260905092542 | 60 | 0 | 0.0 | 0.0 | 0.00 | 0.45 | 0.00 | 91 | 1021.2 |
| 20260905092039 | 61 | 0 | 0.0 | 0.0 | 0.00 | 0.45 | 0.00 | 92 | 1021.2 |
| 20260905091624 | 61 | 0 | 0.0 | 0.0 | 0.00 | 0.45 | 0.00 | 92 | 1021.2 |
| 20260905091039 | 61 | 0 | 0.0 | 4.0 | 0.00 | 0.45 | 0.00 | 92 | 1021.2 |
| 20260905090538 | 60 | 0 | 1.0 | 4.0 | 0.00 | 0.45 | 0.00 | 93 | 1021.2 |
| 20260905090055 | 60 | 0 | 0.0 | 0.0 | 0.00 | 0.45 | 0.00 | 93 | 1021.2 |
| 20260905085540 | 60 | 0 | 0.0 | 0.0 | 0.00 | 0.45 | 0.00 | 93 | 1021.2 |
| 20260905085040 | 60 | 0 | 0.0 | 0.0 | 0.00 | 0.45 | 0.00 | 92 | 1021.2 |
| 20260905084610 | 60 | 0 | 0.0 | 0.0 | 0.00 | 0.45 | 0.00 | 92 | 1021.2 |
| 20260905084042 | 60 | 0 | 0.0 | 0.0 | 0.00 | 0.45 | 0.00 | 92 | 1021.2 |
| 20260905083539 | 60 | 0 | 0.0 | 0.0 | 0.00 | 0.45 | 0.00 | 92 | 1021.2 |
| 20260905083049 | 60 | 0 | 0.0 | 0.0 | 0.00 | 0.45 | 0.00 | 92 | 1021.2 |
| 20260905082539 | 60 | 0 | 0.0 | 0.0 | 0.00 | 0.45 | 0.00 | 92 | 1021.2 |
| 20260905082039 | 60 | 0 | 0.0 | 0.0 | 0.00 | 0.45 | 0.00 | 92 | 1021.2 |
| 20260905081550 | 60 | 0 | 0.0 | 0.0 | 0.00 | 0.45 | 0.00 | 92 | 1021.2 |
| 20260905081039 | 60 | 0 | 0.0 | 0.0 | 0.00 | 0.45 | 0.00 | 92 | 1021.2 |
| 20260905080540 | 60 | 0 | 0.0 | 0.0 | 0.00 | 0.45 | 0.00 | 92 | 1021.2 |
| 20260905080107 | 60 | 0 | 0.0 | 0.0 | 0.00 | 0.45 | 0.00 | 92 | 1021.2 |
| 20260905075540 | 60 | 0 | 0.0 | 0.0 | 0.00 | 0.45 | 0.00 | 91 | 1021.2 |
| 20260905075039 | 60 | 0 | 0.0 | 0.0 | 0.00 | 0.45 | 0.00 | 91 | 1021.2 |
| 20260905074614 | 60 | 0 | 0.0 | 0.0 | 0.00 | 0.45 | 0.00 | 90 | 1021.2 |
| 20260905074039 | 61 | 0 | 0.0 | 0.0 | 0.00 | 0.45 | 0.00 | 90 | 1021.2 |
| 20260905073540 | 61 | 0 | 0.0 | 0.0 | 0.00 | 0.45 | 0.00 | 90 | 1021.2 |
| 20260905073052 | 61 | 0 | 0.0 | 0.0 | 0.00 | 0.45 | 0.00 | 89 | 1021.2 |
| 20260905072540 | 61 | 0 | 0.0 | 0.0 | 0.00 | 0.45 | 0.00 | 89 | 1021.2 |
| 20260905072039 | 62 | 0 | 0.0 | 0.0 | 0.00 | 0.45 | 0.00 | 88 | 1021.2 |
| 20260905071549 | 62 | 0 | 0.0 | 0.0 | 0.00 | 0.45 | 0.00 | 88 | 1021.2 |
| 20260905071040 | 62 | 0 | 0.0 | 0.0 | 0.00 | 0.45 | 0.00 | 87 | 1021.2 |
| 20260905070539 | 63 | 0 | 0.0 | 0.0 | 0.00 | 0.45 | 0.00 | 87 | 1021.2 |
| 20260905070110 | 63 | 0 | 0.0 | 0.0 | 0.00 | 0.45 | 0.00 | 85 | 1021.2 |
| 20260905065540 | 63 | 0 | 0.0 | 0.0 | 0.00 | 0.45 | 0.00 | 85 | 1021.2 |
| 20260905065039 | 64 | 0 | 0.0 | 1.0 | 0.00 | 0.45 | 0.00 | 85 | 1021.2 |
| 20260905064554 | 64 | 0 | 0.0 | 1.0 | 0.00 | 0.45 | 0.00 | 84 | 1021.2 |
| 20260905064039 | 64 | 0 | 0.0 | 0.0 | 0.00 | 0.45 | 0.00 | 85 | 1021.2 |
| 20260905063539 | 65 | 0 | 0.0 | 0.0 | 0.00 | 0.45 | 0.00 | 84 | 1021.2 |
| 20260905063059 | 65 | 0 | 0.0 | 0.0 | 0.00 | 0.45 | 0.00 | 81 | 1021.2 |
| 20260905062539 | 66 | 0 | 0.0 | 0.0 | 0.00 | 0.45 | 0.00 | 82 | 1021.2 |
| 20260905062041 | 66 | 0 | 0.0 | 0.0 | 0.00 | 0.45 | 0.00 | 81 | 1021.2 |
| 20260905061613 | 66 | 0 | 0.0 | 0.0 | 0.00 | 0.45 | 0.00 | 79 | 1021.2 |
| 20260905061043 | 66 | 0 | 0.0 | 0.0 | 0.00 | 0.45 | 0.00 | 81 | 1021.2 |
| 20260905060539 | 66 | 0 | 0.0 | 4.0 | 0.00 | 0.45 | 0.00 | 80 | 1021.2 |
| 20260905060059 | 67 | 0 | 0.0 | 4.0 | 0.00 | 0.45 | 0.00 | 77 | 1021.2 |
| 20260905055620 | 67 | 0 | 0.0 | 4.0 | 0.00 | 0.45 | 0.00 | 77 | 1021.2 |
| 20260905055039 | 67 | 0 | 0.0 | 3.0 | 0.00 | 0.45 | 0.00 | 76 | 1021.2 |
| 20260905054558 | 67 | 129 | 0.0 | 5.0 | 0.00 | 0.45 | 0.00 | 73 | 1021.2 |
| 20260905054039 | 66 | 0 | 1.0 | 5.0 | 0.00 | 0.45 | 0.00 | 77 | 1021.2 |
| 20260905053539 | 65 | 0 | 0.0 | 4.0 | 0.00 | 0.45 | 0.00 | 83 | 1021.2 |
| 20260905053051 | 65 | 0 | 0.0 | 4.0 | 0.00 | 0.45 | 0.00 | 81 | 1021.2 |
| 20260905052538 | 64 | 0 | 0.0 | 0.0 | 0.00 | 0.45 | 0.00 | 85 | 1021.2 |
| 20260905052041 | 64 | 0 | 0.0 | 0.0 | 0.00 | 0.45 | 0.00 | 90 | 1021.2 |
| 20260905051556 | 64 | 0 | 0.0 | 0.0 | 0.00 | 0.45 | 0.00 | 90 | 1021.2 |
| 20260905051039 | 64 | 0 | 0.0 | 0.0 | 0.00 | 0.45 | 0.00 | 89 | 1021.2 |
| 20260905050539 | 64 | 0 | 0.0 | 0.0 | 0.00 | 0.45 | 0.00 | 89 | 1021.2 |
| 20260905050058 | 64 | 0 | 0.0 | 0.0 | 0.00 | 0.45 | 0.00 | 88 | 1021.2 |
| 20260905045539 | 64 | 0 | 0.0 | 0.0 | 0.00 | 0.45 | 0.45 | 88 | 1021.2 |
| 20260905045039 | 64 | 0 | 0.0 | 0.0 | 0.00 | 0.45 | 0.45 | 91 | 1021.2 |
| 20260905044555 | 63 | 0 | 0.0 | 0.0 | 0.00 | 0.45 | 0.45 | 91 | 1021.2 |
| 20260905044043 | 64 | 0 | 0.0 | 0.0 | 0.00 | 0.45 | 0.45 | 92 | 1021.2 |
| 20260905043539 | 64 | 0 | 0.0 | 0.0 | 0.00 | 0.45 | 0.45 | 92 | 1021.2 |
| 20260905043102 | 64 | 0 | 0.0 | 0.0 | 0.00 | 0.45 | 0.45 | 92 | 1021.2 |
| 20260905042541 | 64 | 0 | 0.0 | 0.0 | 0.00 | 0.45 | 0.45 | 92 | 1021.2 |
| 20260905042039 | 64 | 0 | 0.0 | 0.0 | 0.00 | 0.45 | 0.45 | 92 | 1021.2 |
| 20260905041559 | 64 | 0 | 0.0 | 0.0 | 0.00 | 0.45 | 0.45 | 93 | 1021.2 |
| 20260905041040 | 64 | 0 | 0.0 | 0.0 | 0.00 | 0.45 | 0.45 | 92 | 1021.2 |
| 20260905040539 | 64 | 0 | 0.0 | 0.0 | 0.00 | 0.45 | 0.45 | 92 | 1021.2 |
| 20260905040057 | 64 | 0 | 0.0 | 0.0 | 0.00 | 0.45 | 0.45 | 93 | 1021.2 |
| 20260905035539 | 64 | 0 | 0.0 | 0.0 | 0.00 | 0.45 | 0.45 | 93 | 1021.2 |
| 20260905035039 | 64 | 0 | 0.0 | 0.0 | 0.00 | 0.45 | 0.45 | 93 | 1021.2 |
| 20260905034552 | 64 | 0 | 0.0 | 0.0 | 0.00 | 0.45 | 0.45 | 93 | 1021.2 |
| 20260905034040 | 64 | 0 | 0.0 | 0.0 | 0.00 | 0.45 | 0.45 | 93 | 1021.2 |
| 20260905033538 | 64 | 0 | 0.0 | 0.0 | 0.00 | 0.45 | 0.45 | 93 | 1021.2 |
| 20260905033058 | 64 | 0 | 0.0 | 0.0 | 0.00 | 0.45 | 0.45 | 93 | 1021.2 |
| 20260905032540 | 64 | 0 | 0.0 | 0.0 | 0.00 | 0.45 | 0.45 | 93 | 1021.2 |
| 20260905032040 | 64 | 0 | 0.0 | 0.0 | 0.00 | 0.45 | 0.45 | 93 | 1021.2 |
| 20260905031558 | 64 | 0 | 0.0 | 0.0 | 0.00 | 0.45 | 0.45 | 93 | 1021.2 |
| 20260905031039 | 64 | 0 | 0.0 | 0.0 | 0.00 | 0.45 | 0.45 | 93 | 1021.2 |
| 20260905030540 | 64 | 0 | 0.0 | 0.0 | 0.00 | 0.45 | 0.45 | 93 | 1021.2 |
| 20260905030055 | 64 | 0 | 0.0 | 0.0 | 0.00 | 0.45 | 0.45 | 93 | 1021.2 |
| 20260905025540 | 64 | 0 | 0.0 | 0.0 | 0.00 | 0.45 | 0.45 | 93 | 1021.2 |